Weather History for KLAS - February, 2013

Change the Weather History Date:

Friday, February 8, 2013

  Actual Average Record
Temperature  
Mean Temperature 49 °F 51 °F  
Max Temperature 56 °F 61 °F 77 °F (2015)
Min Temperature 42 °F 42 °F 25 °F (1949)
Degree Days  
Heating Degree Days 16 14  
Month to date heating degree days 72 114  
Since 1 July heating degree days 1336 1466  
Cooling Degree Days 0 0  
Month to date cooling degree days 0 0  
Year to date cooling degree days 0 0  
Moisture  
Dew Point 24 °F    
Average Humidity 36    
Maximum Humidity 49    
Minimum Humidity 22    
Precipitation  
Precipitation 0.00 in 0.02 in 1.29 in (1993)
Month to date precipitation 0.00 0.17  
Year to date precipitation 0.43 0.71  
Snow  
Snow 0.00 in 0.00 in 0.30 in (1989)
Month to date snowfall 0.0 0.0  
Since 1 July snowfall T 0.2  
Snow Depth 0.00 in    
Sea Level Pressure  
Sea Level Pressure 29.68 in    
Wind  
Wind Speed 14 mph (SW)    
Max Wind Speed 29 mph    
Max Gust Speed 40 mph    
Visibility 10 miles    
Events      
T = Trace of Precipitation, MM = Missing Value Source: NWS Daily Summary

Daily Weather History Graph

Daily Weather History Graph

Search for Another Location

Airport or City:

Trip Planner

Search our weather history database for the weather conditions in past years. The results will help you decide how hot, cold, wet, or windy it might be!

Date:

Astronomy

Feb. 08, 2013 Rise Set
Actual Time 6:34 AM PST 5:15 PM PST
Civil Twilight 6:08 AM PST 5:41 PM PST
Nautical Twilight 5:38 AM PST 6:12 PM PST
Astronomical Twilight 5:08 AM PST 6:42 PM PST
Moon 5:05 AM PST (2/8) 3:54 PM PST (2/8)
Length of Visible Light 11h 33m
Length of Day
10h 40m
Waning Crescent, 3% of the Moon is Illuminated
Feb 8
Waning Crescent
Feb 9
New
Feb 17
First Quarter
Feb 25
Full
Mar 4
Last Quarter

Hourly Weather History & Observations

Time (PST) Temp. Windchill Dew Point Humidity Pressure Visibility Wind Dir Wind Speed Gust Speed Precip Events Conditions
12:56 AM 53.1 °F - 23.0 °F 31% 29.68 in 10.0 mi SSW 9.2 mph - N/A   Clear
1:56 AM 53.1 °F - 30.9 °F 43% 29.68 in 10.0 mi SW 21.9 mph 27.6 mph N/A   Partly Cloudy
2:56 AM 51.1 °F - 28.9 °F 43% 29.67 in 10.0 mi SSW 19.6 mph 26.5 mph N/A   Partly Cloudy
3:56 AM 48.9 °F - 28.0 °F 44% 29.67 in 10.0 mi SW 18.4 mph 24.2 mph N/A   Partly Cloudy
4:56 AM 50.0 °F - 25.0 °F 38% 29.65 in 10.0 mi South 15.0 mph 19.6 mph N/A   Partly Cloudy
5:56 AM 46.9 °F - 26.1 °F 44% 29.66 in 10.0 mi SW 18.4 mph 24.2 mph N/A   Partly Cloudy
6:56 AM 46.9 °F - 25.0 °F 42% 29.66 in 10.0 mi SSW 23.0 mph 35.7 mph N/A   Partly Cloudy
7:56 AM 46.9 °F - 26.1 °F 44% 29.68 in 10.0 mi SSW 18.4 mph 28.8 mph N/A   Scattered Clouds
8:56 AM 46.9 °F - 23.0 °F 39% 29.70 in 10.0 mi SW 25.3 mph 34.5 mph N/A   Scattered Clouds
9:56 AM 48.0 °F - 21.9 °F 36% 29.71 in 10.0 mi SSW 25.3 mph 32.2 mph N/A   Mostly Cloudy
10:56 AM 51.1 °F - 21.0 °F 31% 29.70 in 10.0 mi SW 15.0 mph 28.8 mph N/A   Mostly Cloudy
11:56 AM 52.0 °F - 21.9 °F 31% 29.68 in 10.0 mi West 13.8 mph 19.6 mph N/A   Mostly Cloudy
12:56 PM 54.0 °F - 19.9 °F 26% 29.66 in 10.0 mi WSW 17.3 mph 25.3 mph N/A   Partly Cloudy
1:56 PM 54.0 °F - 19.0 °F 25% 29.66 in 10.0 mi SSW 13.8 mph 25.3 mph N/A   Mostly Cloudy
2:09 PM 55.4 °F - 17.6 °F 23% 29.68 in 10.0 mi SW 12.7 mph 27.6 mph N/A   Mostly Cloudy
2:56 PM 55.0 °F - 17.1 °F 23% 29.65 in 10.0 mi SSW 18.4 mph 31.1 mph N/A   Mostly Cloudy
3:56 PM 52.0 °F - 19.9 °F 28% 29.67 in 10.0 mi SW 17.3 mph 25.3 mph N/A   Mostly Cloudy
4:56 PM 50.0 °F - 19.9 °F 31% 29.67 in 10.0 mi SW 15.0 mph 23.0 mph N/A   Mostly Cloudy
5:56 PM 46.9 °F - 26.1 °F 44% 29.70 in 10.0 mi Calm Calm - N/A   Mostly Cloudy
6:56 PM 46.9 °F - 27.0 °F 46% 29.71 in 10.0 mi Calm Calm - N/A   Mostly Cloudy
7:56 PM 46.9 °F - 24.1 °F 41% 29.70 in 10.0 mi Calm Calm - N/A   Mostly Cloudy
8:56 PM 46.0 °F - 24.1 °F 42% 29.70 in 10.0 mi Calm Calm - N/A   Scattered Clouds
9:56 PM 44.1 °F 39.5 °F 24.1 °F 45% 29.70 in 10.0 mi SSW 8.1 mph - N/A   Scattered Clouds
10:56 PM 43.0 °F 37.7 °F 24.1 °F 47% 29.69 in 10.0 mi SSW 9.2 mph - N/A   Scattered Clouds
11:56 PM 43.0 °F 36.8 °F 25.0 °F 49% 29.69 in 10.0 mi SSW 11.5 mph - N/A   Scattered Clouds